Regional Weather Roundup
Issued by NWS Sterling, VA

Home | Current Version | Previous Version | Text Only | Print | Product List | Glossary On
Versions: 1 2 3 4 5 6 7 8 9 10 11 12 13 14 15 16 17 18 19 20 21 22 23 24 25 26 27
000
ASUS41 KLWX 221011
RWRLWX

REGIONAL WEATHER ROUNDUP
NATIONAL WEATHER SERVICE BALTIMORE MD/WASHINGTON DC
500 AM EST MON JAN 22 2018

Note: "FAIR" indicates few or no clouds below 12,000 feet
with no significant weather and/or obstructions to visibility.
 TC=TEMPERATURE CELSIUS

 * =Non NWS site. Station does not report precipitation (e.g. rain,
    snow, etc.), thunder, or fog.

DCZ001-MDZ009-015-VAZ040>042-051-053>054-221100-
WASHINGTON METRO

CITY           SKY/WX    TMP DP  RH WIND       PRES   REMARKS
WASHINGTON NAT CLOUDY    51  41  68 SW5       30.12F
DULLES         CLOUDY    51  43  74 S7        30.11S
ANDREWS AFB    MOCLDY    51  39  62 S7        30.10F
FT BELVOIR     MOCLDY    44  38  78 CALM        N/A
COLLEGE PARK*  CLOUDY    49  40  71 CALM      30.11F
LEESBURG*      CLOUDY    43  43 100 CALM      30.11S
MANASSAS*      CLOUDY    45  41  86 CALM      30.12S
GAITHERSBURG*  CLOUDY    47  41  80 SE5       30.11S

$$

MDZ006>007-011-014-221100-
BALTIMORE METRO

CITY           SKY/WX    TMP DP  RH WIND       PRES   REMARKS
BWI AIRPORT    CLOUDY    44  39  82 E3        30.11S
MD SCIENCE CTR   N/A     46  38  73 MISG      30.12S
MARTIN STATE   CLOUDY    41  37  87 CALM      30.14S
ANNAPOLIS      CLOUDY    42  37  82 SE6       30.12S
FORT MEADE*    CLOUDY    43  37  81 CALM      30.13F

$$

MDZ012-015-019>023-221100-
MARYLAND EASTERN SHORE

CITY           SKY/WX    TMP DP  RH WIND       PRES   REMARKS
OCEAN CITY     CLOUDY    50  41  71 SW8       30.16F
SALISBURY      CLOUDY    50  41  71 SW9       30.16S
BAY BRIDGE AP* CLOUDY    46  37  71 S7        30.12S
CAMBRIDGE*       N/A     46  39  76 S6        30.15S
EASTON*        CLOUDY    50  38  63 S7        30.17S

$$

MDZ017>025-221100-
SOUTHERN MARYLAND

CITY           SKY/WX    TMP DP  RH WIND       PRES   REMARKS
PATUXENT RIVER NOT AVBL
ST INIGOES     NOT AVBL
LEONARDTOWN*   CLOUDY    52  37  58 SW6       30.14F

$$

MDZ003>005-221100-
NORTH CENTRAL MARYLAND

CITY           SKY/WX    TMP DP  RH WIND       PRES   REMARKS
FREDERICK*     CLOUDY    41  34  75 CALM      30.14S
HAGERSTOWN APT CLOUDY    46  41  82 CALM      30.09S
WESTMINSTER*   CLOUDY    48  43  81 CALM      30.10S

$$

MDZ501>502-221100-
WESTERN MARYLAND

CITY           SKY/WX    TMP DP  RH WIND       PRES   REMARKS
OAKLAND*         N/A     46  45  93 S8        30.07S
CUMBERLAND*    CLOUDY    45  41  87 CALM      30.12S

$$

VAZ025>031-221100-
SHENANDOAH VALLEY

CITY           SKY/WX    TMP DP  RH WIND       PRES   REMARKS
WINCHESTER*    CLOUDY    52  43  71 SW9       30.10S
FRONT ROYAL*   CLOUDY    54  43  66 MISG      30.08S
LURAY*         CLOUDY    45  43  93 CALM      30.10F
NEW MARKET*    CLOUDY    43  40  90 CALM      30.10F
STAUNTON*      CLOUDY    42  40  91 CALM      30.13F
WAYNESBORO*    CLOUDY    46  44  93 CALM      30.12S

$$

WVZ021-048>050-054>055-221100-
EASTERN WEST VIRGINIA PANHANDLE

CITY           SKY/WX    TMP DP  RH WIND       PRES   REMARKS
MARTINSBURG    CLOUDY    45  40  82 CALM      30.09R
PETERSBURG*    CLOUDY    41  39  93 CALM      30.09F

$$

VAZ036>039-050-221100-
CENTRAL FOOTHILLS

CITY           SKY/WX    TMP DP  RH WIND       PRES   REMARKS
CHARLOTTESVILL CLOUDY    52  42  69 S6        30.11S
CULPEPER*      CLOUDY    53  41  63 S5        30.12S
ORANGE*        MOCLDY    48  41  76 CALM      30.12S
GORDONSVILLE*  CLOUDY    44  42  96 SW3       30.11F
WARRENTON*     CLOUDY    54  40  59 CALM      30.10S

$$

VAZ055>057-221100-
NORTH AND CENTRAL PIEDMONT

CITY           SKY/WX    TMP DP  RH WIND       PRES   REMARKS
FREDERICKSBRG* MOCLDY    54  44  70 SW6       30.12S
STAFFORD*      CLOUDY    55  44  67 S5        30.16S

$$

NCZ024-NYZ072-PAZ021-071-VAZ022-071-221100-
OTHER REGIONAL OBSERVATIONS

CITY           SKY/WX    TMP DP  RH WIND       PRES   REMARKS
NEW YORK CITY  CLOUDY    42  37  82 NE3       30.15S
PHILADELPHIA   LGT RAIN  42  35  76 SE3       30.14S
PITTSBURGH     LGT RAIN  45  44  97 SE3       30.02S
ROANOKE        CLOUDY    42  38  85 CALM      30.16S
RICHMOND       MOCLDY    50  38  63 S5        30.14F
RALEIGH        FAIR      38  37  97 CALM      30.18S

$$

ANZ530>537-221100-
MARINE OBSERVATIONS

STATION/POSITION TIME  TEMP    WIND        PRES
                       AIR SEA DIR/SP/G
                 (UTC) (F)     (DEG/KT/KT) (MB)
THOMAS PT LIGHT  1000   46 33  160/ 15/ 15   N/A
BALT KEY BRIDGE  0936   42      90/  4/  4 1020.0S
COVE POINT       0936   37     160/ 10/ 11 1021.2F
LEWISETTA        0942   52 36  220/ 10/ 12 1020.7F
SOLOMONS ISLAND  0936   48 35  140/  2/  2 1020.2F
PINEY POINT      0942          140/  4/  5   N/A

$$





USA.gov is the U.S. government's official web portal to all federal, state and local government web resources and services.